Location: Grand Lay
(47.3253°N, 0.9468°E)
Time: 11:49:12
(UTC+00:00)

SAR-Lupe-4 - Pass Details

Date: 18 January 2026
Orbit: 480 x 483 km, 98.1° (Epoch: 10 January)

Event Time Altitude Azimuth Distance (km) Brightness Sun altitude
Rises 06:53:48 0° 15° (NNE) 2,558 7.2 -7.3°
Reaches altitude 10° 06:55:53 10° 18° (NNE) 1,673 6.2 -7.0°
Maximum altitude 06:59:28 72° 103° (ESE) 514 3.9 -6.5°
Drops below altitude 10° 07:03:01 10° 188° (S) 1,657 6.5 -5.9°
Sets 07:05:04 0° 191° (S) 2,531 7.4 -5.6°
